Waarnemingen

Advertentie
Mijn weer
Koksijde, België (6400): temperatuur & dauwpunt: 09.08.2018 15:00:00 - 15.08.2018 15:00:00 (CEST)Koksijde, België (6400): windsnelheid & windstoten: 09.08.2018 15:00:00 - 15.08.2018 15:00:00 (CEST)Koksijde, België (6400): windrichting: 09.08.2018 15:00:00 - 15.08.2018 15:00:00 (CEST)Koksijde, België (6400): luchtdruk: 09.08.2018 15:00:00 - 15.08.2018 15:00:00 (CEST)Koksijde, België (6400): zicht: 09.08.2018 15:00:00 - 15.08.2018 15:00:00 (CEST)
Datum & Tijd tt [°C] td [°C] ff [km/u] ff [kn] fx [km/u] fx [kn] dd ppp [hPa] vv [km]
15.08.2018 15:00:00 20,2 15,2 22 12 32 18 WZW 1019,7 16
15.08.2018 14:00:00 19,2 16,2 18 10 - - WZW 1019,7 12
15.08.2018 13:00:00 17,9 16,0 14 8 22 12 ZW 1019,8 8
15.08.2018 12:00:00 17,3 15,3 18 10 22 12 ZW 1020,0 5
15.08.2018 11:00:00 17,5 14,6 7 4 - - ZW 1020,1 9
15.08.2018 10:00:00 17,6 14,2 14 8 29 16 W 1019,7 13
15.08.2018 09:00:00 17,5 14,2 14 8 25 14 WZW 1019,3 12
15.08.2018 08:00:00 17,5 14,8 18 10 - - ZW 1019,0 9
15.08.2018 07:00:00 17,3 16,3 14 8 18 10 ZW 1018,3 3,1
15.08.2018 06:00:00 17,1 16,1 11 6 18 10 ZW 1018,3 4,2
15.08.2018 05:00:00 16,5 15,5 7 4 - - ZW 1018,2 5
15.08.2018 04:00:00 17,1 15,9 11 6 18 10 ZW 1018,5 6
15.08.2018 03:00:00 17,2 15,7 11 6 18 10 ZW 1018,5 7
15.08.2018 02:00:00 17,1 15,6 11 6 - - ZW 1018,7 10
15.08.2018 01:00:00 16,6 14,9 7 4 18 10 ZZW 1018,7 13
15.08.2018 00:00:00 16,3 14,2 11 6 18 10 ZW 1018,7 15
14.08.2018 23:00:00 15,9 13,6 11 6 - - ZZW 1018,7 18
14.08.2018 22:00:00 17,1 13,9 11 6 22 12 ZW 1018,6 16
14.08.2018 21:00:00 18,7 14,2 14 8 25 14 ZW 1018,2 20
14.08.2018 20:00:00 20,2 13,8 14 8 - - WZW 1018,0 15
14.08.2018 19:00:00 20,1 15,0 18 10 29 16 W 1018,1 19
14.08.2018 18:00:00 20,7 12,2 18 10 32 18 WZW 1017,7 20
14.08.2018 17:00:00 20,7 13,4 18 10 - - W 1017,8 20
14.08.2018 16:00:00 20,0 12,8 22 12 36 19 WNW 1018,0 20
14.08.2018 15:00:00 19,3 13,1 18 10 32 18 WNW 1017,8 20
14.08.2018 14:00:00 20,0 12,5 22 12 - - WNW 1017,3 20
14.08.2018 13:00:00 19,4 13,6 18 10 32 18 W 1017,0 20
14.08.2018 12:00:00 19,7 14,7 18 10 29 16 W 1016,6 20
14.08.2018 11:00:00 19,0 15,0 14 8 - - W 1016,1 20
14.08.2018 10:00:00 18,7 14,8 18 10 25 14 WNW 1015,7 20
14.08.2018 09:00:00 18,5 15,4 14 8 25 14 WNW 1015,0 15
14.08.2018 08:00:00 18,3 15,7 11 6 - - WNW 1014,2 15
14.08.2018 07:00:00 18,2 15,6 18 10 25 14 WNW 1013,3 12
14.08.2018 06:00:00 17,7 15,5 14 8 25 14 NW 1012,7 12
14.08.2018 05:00:00 18,2 15,9 14 8 - - NW 1012,6 11
14.08.2018 04:00:00 18,3 16,0 18 10 36 19 NW 1011,8 11
14.08.2018 03:00:00 18,5 16,0 18 10 32 18 NW 1011,3 13
14.08.2018 02:00:00 17,7 16,3 14 8 - - W 1011,1 7
14.08.2018 01:00:00 17,2 15,9 14 8 22 12 WZW 1010,7 7
14.08.2018 00:00:00 17,3 15,8 14 8 25 14 WZW 1010,2 7
13.08.2018 23:00:00 17,6 15,8 14 8 - - WZW 1009,8 10
13.08.2018 22:00:00 18,0 15,7 18 10 32 18 WZW 1009,6 11
13.08.2018 21:00:00 18,5 15,7 22 12 40 21 WZW 1009,2 14
13.08.2018 20:00:00 20,0 16,0 25 14 - - W 1008,5 12
13.08.2018 19:00:00 20,8 15,6 25 14 40 21 W 1008,0 19
13.08.2018 18:00:00 21,0 15,5 29 16 43 23 W 1007,6 20
13.08.2018 17:00:00 21,2 14,5 29 16 - - W 1007,2 20
13.08.2018 16:00:00 20,8 15,3 29 16 47 25 W 1007,2 20
13.08.2018 15:00:00 21,0 16,1 22 12 36 19 WNW 1007,3 20
13.08.2018 14:00:00 19,9 15,4 25 14 - - W 1007,0 20
13.08.2018 13:00:00 19,9 15,6 14 8 29 16 WZW 1006,7 20
13.08.2018 12:00:00 19,2 14,4 18 10 32 18 W 1006,7 18
13.08.2018 11:00:00 18,6 15,1 18 10 - - WZW 1006,6 18
13.08.2018 10:00:00 18,8 16,7 18 10 25 14 ZW 1006,2 18
13.08.2018 09:00:00 17,2 16,2 14 8 22 12 ZZW 1006,0 12
13.08.2018 08:00:00 16,1 15,5 21 11 - - Z 1006,1 1,0
13.08.2018 07:00:00 16,6 15,9 11 6 22 12 ZZW 1006,1 4,5
13.08.2018 06:00:00 16,7 15,7 11 6 11 6 ZZW 1005,7 4,5
13.08.2018 05:00:00 16,7 15,5 8 4 - - Z 1005,8 3,6
13.08.2018 04:00:00 17,3 15,3 4 2 7 4 - 1006,3 8
13.08.2018 03:00:00 17,2 15,4 4 2 7 4 N 1007,1 7
13.08.2018 02:00:00 17,2 15,6 4 2 - - N 1007,7 6
13.08.2018 01:00:00 17,6 16,1 4 2 11 6 N 1008,6 5
13.08.2018 00:00:00 18,1 16,3 4 2 7 4 N 1008,7 9
12.08.2018 23:00:00 18,1 16,1 4 2 - - N 1008,6 13
12.08.2018 22:00:00 18,7 15,6 4 2 11 6 N 1009,3 7
12.08.2018 21:00:00 20,1 14,0 4 2 11 6 N 1009,2 19
12.08.2018 20:00:00 20,7 13,4 7 4 - - NNW 1009,2 18
12.08.2018 19:00:00 24,2 13,8 7 4 22 12 N 1009,6 20
12.08.2018 18:00:00 25,1 12,4 14 8 25 14 Z 1010,1 20
12.08.2018 17:00:00 25,6 11,9 14 8 - - ZZW 1010,6 20
12.08.2018 16:00:00 25,2 11,2 14 8 29 16 ZZW 1011,3 20
12.08.2018 15:00:00 25,3 11,6 18 10 32 18 Z 1012,1 20
12.08.2018 14:00:00 24,7 12,4 22 12 - - ZZW 1012,8 18
12.08.2018 13:00:00 23,6 12,2 25 14 32 18 Z 1013,5 20
12.08.2018 12:00:00 23,4 13,0 22 12 32 18 Z 1014,1 16
12.08.2018 11:00:00 21,5 10,9 22 12 - - Z 1014,5 20
12.08.2018 10:00:00 19,1 10,8 14 8 25 14 Z 1014,8 20
12.08.2018 09:00:00 17,8 10,3 14 8 25 14 Z 1015,3 20
12.08.2018 08:00:00 17,0 10,4 14 8 - - Z 1015,6 20
12.08.2018 07:00:00 16,4 10,3 18 10 22 12 Z 1016,1 20
12.08.2018 06:00:00 16,2 10,2 11 6 22 12 Z 1016,2 20
12.08.2018 05:00:00 15,6 10,2 11 6 - - ZZO 1016,8 20
12.08.2018 04:00:00 16,5 10,7 4 2 11 6 N 1017,7 20
12.08.2018 03:00:00 17,0 10,7 7 4 11 6 Z 1018,6 20
12.08.2018 02:00:00 17,0 11,4 7 4 - - Z 1019,2 18
12.08.2018 01:00:00 16,9 11,5 7 4 7 4 N 1019,8 13
12.08.2018 00:00:00 16,3 11,2 4 2 7 4 N 1020,6 16
11.08.2018 23:00:00 15,0 11,5 7 4 - - ZO 1021,0 17
11.08.2018 22:00:00 15,8 11,4 7 4 7 4 N 1021,5 3,8
11.08.2018 21:00:00 17,7 9,1 4 2 4 2 N 1021,7 20
11.08.2018 20:00:00 18,2 8,9 4 2 - - N 1022,0 20
11.08.2018 19:00:00 19,1 9,1 4 2 18 10 N 1022,5 20
11.08.2018 18:00:00 18,7 9,0 11 6 22 12 NW 1022,5 19
11.08.2018 17:00:00 19,6 10,2 11 6 - - NW 1022,8 19
11.08.2018 16:00:00 19,2 10,5 11 6 25 14 WNW 1023,3 20
11.08.2018 15:00:00 19,2 9,8 11 6 22 12 NNW 1023,7 20
11.08.2018 14:00:00 18,7 9,5 11 6 - - NW 1024,2 20
11.08.2018 13:00:00 19,1 10,0 14 8 25 14 NW 1024,2 20
11.08.2018 12:00:00 18,1 9,2 18 10 29 16 W 1024,2 19
11.08.2018 11:00:00 17,4 8,6 18 10 - - W 1024,2 20
11.08.2018 10:00:00 16,5 9,2 14 8 22 12 W 1024,2 19
11.08.2018 09:00:00 15,0 12,2 7 4 14 8 WZW 1023,7 13
11.08.2018 08:00:00 12,0 10,7 7 4 - - ZW 1023,2 16
11.08.2018 07:00:00 10,3 9,2 7 4 11 6 ZZW 1022,7 11
11.08.2018 06:00:00 10,6 9,3 7 4 11 6 ZW 1022,2 15
11.08.2018 05:00:00 10,9 9,7 7 4 - - ZW 1022,0 17
11.08.2018 04:00:00 11,6 10,1 4 2 18 10 N 1021,8 18
11.08.2018 03:00:00 12,6 11,3 7 4 11 6 W 1021,7 17
11.08.2018 02:00:00 12,8 11,6 7 4 - - WZW 1021,3 15
11.08.2018 01:00:00 13,0 11,5 11 6 22 12 ZW 1021,0 18
11.08.2018 00:00:00 13,1 11,4 14 8 22 12 ZW 1020,6 20
10.08.2018 23:00:00 13,0 11,4 18 10 - - WZW 1020,3 19
10.08.2018 22:00:00 13,1 12,1 18 10 43 23 WZW 1020,1 15
10.08.2018 21:00:00 14,2 12,8 29 16 54 29 WZW 1020,1 4,0
10.08.2018 20:00:00 16,1 12,1 29 16 - - ZW 1019,6 20
10.08.2018 19:00:00 18,3 10,9 32 18 50 27 ZW 1019,2 19
10.08.2018 18:00:00 17,2 10,8 36 19 47 25 ZW 1020,0 8
10.08.2018 17:00:00 18,7 10,2 25 14 - - ZW 1019,7 18
10.08.2018 16:00:00 19,8 9,2 37 20 54 29 ZW 1020,1 10
10.08.2018 15:00:00 19,3 11,0 29 16 47 25 ZW 1020,3 20
10.08.2018 14:00:00 18,8 12,0 29 16 - - ZZW 1020,7 20
10.08.2018 13:00:00 17,8 12,4 18 10 36 19 ZZW 1021,2 20
10.08.2018 12:00:00 17,9 12,0 25 14 36 19 ZW 1021,1 20
10.08.2018 11:00:00 17,1 12,1 22 12 - - ZW 1021,2 20
10.08.2018 10:00:00 14,8 11,1 18 10 36 19 ZW 1020,8 20
10.08.2018 09:00:00 14,1 11,3 25 14 36 19 ZW 1020,7 10
10.08.2018 08:00:00 13,9 11,5 18 10 - - ZW 1020,1 20
10.08.2018 07:00:00 12,3 9,1 11 6 29 16 ZW 1019,6 20
10.08.2018 06:00:00 12,7 9,6 18 10 25 14 ZW 1019,5 18
10.08.2018 05:00:00 13,5 10,5 14 8 - - ZW 1018,7 18
10.08.2018 04:00:00 12,6 11,5 11 6 14 8 ZW 1018,7 9
10.08.2018 03:00:00 11,8 10,2 4 2 22 12 N 1018,6 14
10.08.2018 02:00:00 12,6 10,8 14 8 - - ZZW 1018,2 20
10.08.2018 01:00:00 12,2 10,5 11 6 22 12 ZW 1018,2 20
10.08.2018 00:00:00 13,5 11,6 11 6 22 12 WZW 1017,6 17
09.08.2018 23:00:00 14,8 9,9 11 6 - - W 1016,6 20
09.08.2018 22:00:00 15,4 11,6 18 10 43 23 NW 1016,0 20
09.08.2018 21:00:00 15,1 12,5 32 18 54 29 WNW 1014,7 11
09.08.2018 20:00:00 14,8 13,0 35 19 - - WNW 1013,0 7
09.08.2018 19:00:00 15,1 13,0 32 18 50 27 WNW 1011,6 10
09.08.2018 18:00:00 15,2 14,2 21 11 47 25 WNW 1010,1 3,0
09.08.2018 17:00:00 16,6 14,8 25 14 - - N 1008,7 6
09.08.2018 16:00:00 16,2 15,4 18 10 25 14 N 1008,7 1,8
09.08.2018 15:00:00 17,0 16,4 11 6 22 12 NNO 1008,5 1,6

tt = temperatuur
td = dauwpunt
ff = windsnelheid
fx = windstoten
dd = windrichting
ppp = luchtdruk
vv = zicht

Weerstations in de omgeving